Effective Sunday, March 17, 2024, the National Weather Service National Data Buoy Center will discontinue its Dial-A-Buoy Interactive Voice Response system. For more information, see Service Change Notice 24-06 (PDF).

Station MISM1 - Matinicus Rock, ME Image indicating link to RSS feed of recent meteorological observations for station MISM1


Conditions at MISM1 as of
(10:00 pm EST on 02/23/2024)
0300 GMT on 02/24/2024:
     

Click on the graph icon in the table below to see a time series plot of the last five days of that observation.

5-day plot - Wind Direction Wind Direction (WDIR): N ( 10 deg true )
5-day plot - Wind Speed Wind Speed (WSPD): 11 kts
5-day plot - Wind Gust Wind Gust (GST): 12 kts
5-day plot - Atmospheric Pressure Atmospheric Pressure (PRES):29.44 in
5-day plot - Pressure Tendency Pressure Tendency (PTDY):-0.02 in ( Falling )
5-day plot - Air Temperature Air Temperature (ATMP): 36.7 °F
5-day plot - Wind Chill Wind Chill (CHILL): 28.4 °F
5-day plot - Wind Speed at 10 Meters Wind Speed at 10 meters (WSPD10M): 12 kts
5-day plot - Wind Speed at 20 Meters Wind Speed at 20 meters (WSPD20M): 12 kts
5-day plot -  Wind Speed, Wind Gust and Atmospheric Pressure Combined plot of Wind Speed, Gust, and Air Pressure
Continuous Winds
TIME
(EST)
5-day plot - Wind Direction WDIR 5-day plot - Wind Speed WSPD
10:00 pmN ( 4 deg ) 12 kts
9:50 pmN ( 10 deg ) 11 kts
9:40 pmN ( 359 deg ) 11 kts
9:30 pmNNW ( 348 deg ) 11 kts
9:20 pmN ( 350 deg ) 11 kts
9:10 pmN ( 359 deg ) 11 kts
 
Peak gust during the measurement hour
TIME
(EST)
5-day plot - Gust Direction GDR 5-day plot - Gust Speed GST
9:50 pmNE ( 50 deg ) 13 kts
Previous observations
TIME
(EST)
5-day plot - Wind Direction
WDIR
 
5-day plot - Wind Speed
WSPD
kts
5-day plot - Wind Gust
GST
kts
5-day plot - Wave Height
WVHT
ft
5-day plot - Dominant Wave Period
DPD
sec
5-day plot - Average Wave Period
APD
sec
5-day plot - Mean Wave Direction
MWD
 
5-day plot - Atmospheric Pressure
PRES
in
5-day plot - Pressure Tendency
PTDY
in
5-day plot - Air Temperature
ATMP
°F
5-day plot - Water Temperature
WTMP
°F
5-day plot - Dew Point
DEWP
°F
5-day plot - Salinity
SAL
psu
5-day plot - Visibility
VIS
nmi
5-day plot - Tide (above MLLW)
TIDE
ft
2024-02-23 09:00 pm N 10 12----29.46+0.00 36.9-----
2024-02-23 08:00 pm N 9 11----29.46+0.00 36.5-----
2024-02-23 07:00 pmNNE 9 10----29.46+0.01 37.0-----
2024-02-23 06:00 pm NE 11 12----29.46+0.00 37.6-----
2024-02-23 05:00 pm NE 12 13----29.46-0.01 37.8-----
2024-02-23 04:00 pm NE 12 14----29.45-0.05 37.8-----
2024-02-23 03:00 pm NE 12 13----29.46-0.08 37.8-----
2024-02-23 02:00 pm NE 9 10----29.48-0.10 37.9-----
2024-02-23 01:00 pmENE 8 8----29.51-0.10 37.9-----
2024-02-23 12:00 pm E 4 4----29.54-0.07 38.3-----
2024-02-23 11:00 am S 5 6----29.57-0.03 38.5-----
2024-02-23 10:00 am S 15 17----29.60+0.00 38.5-----
2024-02-23 09:00 amSSW 14 15----29.60-0.01 38.8-----
2024-02-23 08:00 amSSW 18 20----29.61-0.02 38.7-----
2024-02-23 07:00 amSSW 20 22----29.61-0.03 38.3-----
2024-02-23 06:00 amSSW 23 25----29.62-0.04 38.1-----
2024-02-23 05:00 amSSW 24 25----29.63-0.05 37.9-----
2024-02-23 04:00 amSSW 22 25----29.63-0.07 37.9-----
2024-02-23 03:00 am SW 18 21----29.65-0.07 37.4-----
2024-02-23 02:00 am SW 24 25----29.68-0.05 37.6-----
2024-02-23 01:00 amSSW 20 22----29.71-0.05 37.6-----
2024-02-23 12:00 amSSW 20 22----29.72-0.07 37.2-----
2024-02-22 11:00 pmSSW 20 22----29.73-0.08 36.7-----
2024-02-22 10:00 pmSSW 17 18----29.75-0.07 35.8-----